FW7370 Weather Reports


time (UTC)temp
C
wind
direction
speed
KPH
gust
KPH
rain 1hr
cm
rain 24hr
cm
rain mn
cm
humidity
%
barometer
mb
20260507185825 -17 8 12.9 22.5 0.00 0.00 0.00 1024.4
20260507185325 -17 16 12.9 22.5 0.00 0.00 0.00 1024.6
20260507184825 -17 8 12.9 20.9 0.00 0.00 0.00 1024.2
20260507184325 -17 15 12.9 24.1 0.00 0.00 0.00 1024.8
20260507183825 -17 6 11.3 24.1 0.00 0.00 0.00 1024.6
20260507183325 -17 4 12.9 24.1 0.00 0.00 0.00 1024.6
20260507182825 -17 18 12.9 24.1 0.00 0.00 0.00 1024.8
20260507182325 -17 7 12.9 25.7 0.00 0.00 0.00 1024.7
20260507181825 -17 15 12.9 25.7 0.00 0.00 0.00 1025.0
20260507181324 -17 8 14.5 24.1 0.00 0.00 0.00 1025.1
20260507180824 -17 8 11.3 22.5 0.00 0.00 0.00 1025.0
20260507180324 -17 14 12.9 20.9 0.00 0.00 0.00 1024.9
20260507175309 -17 1 12.9 22.5 0.00 0.00 0.00 1025.2
20260507174809 -17 8 12.9 20.9 0.00 0.00 0.00 1025.5
20260507174309 -17 18 8.0 20.9 0.00 0.00 0.00 1025.4
20260507173253 -17 3 11.3 20.9 0.00 0.00 0.00 1025.5
20260507172753 -17 359 12.9 20.9 0.00 0.00 0.00 1025.6
20260507172253 -17 359 11.3 20.9 0.00 0.00 0.00 1025.4
20260507171753 -17 5 9.7 20.9 0.00 0.00 0.00 1025.5
20260507171253 -17 357 9.7 20.9 0.00 0.00 0.00 1025.4
20260507170752 -17 6 11.3 20.9 0.00 0.00 0.00 1025.9
20260507170252 -17 10 9.7 20.9 0.00 0.00 0.00 1025.7
20260507165236 -17 52 6.4 19.3 0.00 0.00 0.00 1025.9
20260507164735 -17 19 9.7 20.9 0.00 0.00 0.00 1026.2
20260507163719 -17 21 11.3 20.9 0.00 0.00 0.00 1025.8
20260507163219 -17 29 9.7 17.7 0.00 0.00 0.00 1026.2
20260507162204 -17 78 4.8 17.7 0.00 0.00 0.00 1026.4
20260507161704 -17 45 6.4 19.3 0.00 0.00 0.00 1026.4
20260507161204 -17 79 8.0 19.3 0.00 0.00 0.00 1026.5
20260507160149 -17 81 3.2 20.9 0.00 0.00 0.00 1026.7
20260507155649 -17 103 9.7 20.9 0.00 0.00 0.00 1026.5
20260507155148 -17 108 8.0 22.5 0.00 0.00 0.00 1026.8
20260507154648 -17 50 6.4 22.5 0.00 0.00 0.00 1026.6
20260507154148 -17 16 12.9 24.1 0.00 0.00 0.00 1026.4
20260507153647 -17 16 11.3 24.1 0.00 0.00 0.00 1026.4
20260507152632 -17 89 8.0 19.3 0.00 0.00 0.00 1026.5
20260507151616 -17 70 8.0 27.4 0.00 0.00 0.00 1026.7
20260507151116 -17 95 9.7 27.4 0.00 0.00 0.00 1026.6
20260507150616 -17 130 14.5 27.4 0.00 0.00 0.00 1026.4
20260507150115 -17 129 16.1 27.4 0.00 0.00 0.00 1026.7
20260507145059 -17 120 12.9 27.4 0.00 0.00 0.00 1026.6
20260507144558 -17 128 17.7 25.7 0.00 0.00 0.00 1026.5
20260507144058 -17 130 12.9 25.7 0.00 0.00 0.00 1026.5
20260507143557 -17 126 11.3 24.1 0.00 0.00 0.00 1026.7
20260507143057 -17 83 12.9 22.5 0.00 0.00 0.00 1026.6
20260507142557 -17 120 14.5 24.1 0.00 0.00 0.00 1026.4
20260507142057 -17 126 14.5 25.7 0.00 0.00 0.00 1026.7
20260507141556 -17 116 11.3 25.7 0.00 0.00 0.00 1026.9
20260507140540 -17 116 14.5 27.4 0.00 0.00 0.00 1026.6
20260507140040 -17 105 11.3 24.1 0.00 0.00 0.00 1026.6
20260507135540 -17 126 16.1 24.1 0.00 0.00 0.00 1026.6
20260507135040 -17 122 14.5 30.6 0.00 0.00 0.00 1026.5
20260507134540 -17 117 20.9 30.6 0.00 0.00 0.00 1026.6
20260507133525 -17 121 12.9 25.7 0.00 0.00 0.00 1026.7
20260507133025 -17 92 12.9 25.7 0.00 0.00 0.00 1026.7
20260507132525 -17 130 17.7 27.4 0.00 0.00 0.00 1026.8
20260507132025 -17 120 12.9 27.4 0.00 0.00 0.00 1026.6
20260507131525 -17 102 12.9 24.1 0.00 0.00 0.00 1026.9
20260507131025 -17 122 16.1 25.7 0.00 0.00 0.00 1026.6
20260507130525 -17 125 17.7 25.7 0.00 0.00 0.00 1026.8
20260507125509 -17 126 14.5 24.1 0.00 0.00 0.00 1026.8
20260507125011 -17 99 9.7 27.4 0.00 0.00 0.00 1026.6
20260507123954 -17 102 12.9 27.4 0.00 0.00 0.00 1027.0
20260507123454 -17 109 16.1 27.4 0.00 0.00 0.00 1026.6
20260507121924 -17 122 12.9 20.9 0.00 0.00 0.00 1026.5
20260507121424 -17 118 11.3 20.9 0.00 0.00 0.00 1026.5
20260507120924 -17 116 6.4 19.3 0.00 0.00 0.00 1026.6
20260507120424 -17 49 4.8 19.3 0.00 0.00 0.00 1026.5
20260507115924 -17 55 3.2 19.3 0.00 0.00 0.00 1026.5
20260507114909 -17 86 8.0 19.3 0.00 0.00 0.00 1026.7
20260507114409 -17 99 6.4 19.3 0.00 0.00 0.00 1026.7
20260507113909 -17 112 9.7 20.9 0.00 0.00 0.00 1026.5
20260507113409 -17 72 4.8 20.9 0.00 0.00 0.00 1026.7
20260507112354 -17 125 9.7 17.7 0.00 0.00 0.00 1026.6
20260507111854 -17 95 6.4 17.7 0.00 0.00 0.00 1026.6
20260507111353 -17 70 4.8 22.5 0.00 0.00 0.00 1026.2
20260507110853 -17 97 9.7 22.5 0.00 0.00 0.00 1026.3
20260507105838 -17 122 9.7 22.5 0.00 0.00 0.00 1026.4
20260507105338 -17 115 14.5 22.5 0.00 0.00 0.00 1026.6
20260507104838 -17 115 12.9 19.3 0.00 0.00 0.00 1026.4
20260507104337 -17 113 8.0 19.3 0.00 0.00 0.00 1026.3
20260507103322 -17 99 4.8 19.3 0.00 0.00 0.00 1026.3
20260507102821 -17 99 8.0 19.3 0.00 0.00 0.00 1026.1
20260507102321 -17 98 6.4 19.3 0.00 0.00 0.00 1026.1
20260507101822 -17 81 6.4 19.3 0.00 0.00 0.00 1026.0
20260507101321 -17 96 3.2 19.3 0.00 0.00 0.00 1026.2
20260507100822 -17 107 9.7 19.3 0.00 0.00 0.00 1026.0
20260507100321 -17 111 6.4 19.3 0.00 0.00 0.00 1025.9
20260507095821 -17 109 6.4 19.3 0.00 0.00 0.00 1026.1
20260507094806 -17 60 6.4 19.3 0.00 0.00 0.00 1026.1
20260507094306 -17 84 6.4 19.3 0.00 0.00 0.00 1026.1
20260507093807 -17 98 6.4 22.5 0.00 0.00 0.00 1025.9
20260507093306 -17 111 9.7 22.5 0.00 0.00 0.00 1025.7
20260507092805 -17 105 11.3 22.5 0.00 0.00 0.00 1025.9
20260507092307 -17 107 8.0 19.3 0.00 0.00 0.00 1025.5
20260507091250 -17 73 4.8 19.3 0.00 0.00 0.00 1025.6
20260507090750 -17 79 6.4 19.3 0.00 0.00 0.00 1025.7
20260507090250 -17 69 6.4 19.3 0.00 0.00 0.00 1025.5
20260507085750 -17 87 6.4 19.3 0.00 0.00 0.00 1025.3
20260507085249 -17 97 6.4 19.3 0.00 0.00 0.00 1025.6
20260507084233 -17 108 11.3 19.3 0.00 0.00 0.00 1025.6
20260507083733 -17 105 9.7 19.3 0.00 0.00 0.00 1025.5
20260507083234 -17 101 6.4 19.3 0.00 0.00 0.00 1025.2
20260507082734 -17 110 11.3 19.3 0.00 0.00 0.00 1025.6
20260507082234 -17 79 8.0 17.7 0.00 0.00 0.00 1025.6
20260507081218 -17 76 8.0 17.7 0.00 0.00 0.00 1025.3
20260507080718 -17 66 4.8 17.7 0.00 0.00 0.00 1025.2
20260507080218 -17 64 4.8 17.7 0.00 0.00 0.00 1025.6
20260507075718 -17 81 8.0 17.7 0.00 0.00 0.00 1025.3
20260507075217 -17 77 3.2 17.7 0.00 0.00 0.00 1025.4
20260507074717 -17 103 8.0 17.7 0.00 0.00 0.00 1025.2
20260507074216 -17 71 6.4 17.7 0.00 0.00 0.00 1025.4
20260507073716 -17 93 4.8 17.7 0.00 0.00 0.00 1025.6
20260507073216 -17 86 4.8 17.7 0.00 0.00 0.00 1025.7
20260507072715 -17 87 4.8 19.3 0.00 0.00 0.00 1025.5
20260507071659 -17 91 8.0 19.3 0.00 0.00 0.00 1025.4
20260507071200 -17 96 11.3 19.3 0.00 0.00 0.00 1025.3
20260507070700 -17 100 12.9 19.3 0.00 0.00 0.00 1025.8
20260507070200 -17 82 8.0 19.3 0.00 0.00 0.00 1025.5
20260507065700 -17 95 6.4 19.3 0.00 0.00 0.00 1025.8
20260507065200 -17 104 8.0 17.7 0.00 0.00 0.00 1025.7
20260507064700 -17 94 8.0 17.7 0.00 0.00 0.00 1025.6
20260507064200 -17 96 9.7 17.7 0.00 0.00 0.00 1025.8
20260507063700 -17 75 6.4 17.7 0.00 0.00 0.00 1025.6
20260507062644 -17 100 8.0 17.7 0.00 0.00 0.00 1025.8
20260507062143 -17 114 11.3 17.7 0.00 0.00 0.00 1025.9
20260507061128 -17 101 4.8 17.7 0.00 0.00 0.00 1026.2
20260507060628 -17 73 3.2 17.7 0.00 0.00 0.00 1026.2
20260507060128 -17 88 4.8 17.7 0.00 0.00 0.00 1026.2
20260507055627 -17 92 4.8 17.7 0.00 0.00 0.00 1026.0
20260507055127 -17 88 4.8 17.7 0.00 0.00 0.00 1026.3
20260507054627 -17 102 6.4 17.7 0.00 0.00 0.00 1026.5
20260507054127 -17 102 6.4 19.3 0.00 0.00 0.00 1026.6
20260507053627 -17 74 6.4 19.3 0.00 0.00 0.00 1026.2
20260507051542 -17 109 12.9 22.5 0.00 0.00 0.00 1026.7
20260507051042 -17 95 8.0 19.3 0.00 0.00 0.00 1026.4
20260507050542 -17 93 9.7 19.3 0.00 0.00 0.00 1026.6
20260507045527 -17 18 8.0 19.3 0.00 0.00 0.00 1026.6
20260507045026 -17 86 8.0 19.3 0.00 0.00 0.00 1027.3
20260507044526 -17 92 6.4 19.3 0.00 0.00 0.00 1027.2
20260507044026 -17 86 4.8 19.3 0.00 0.00 0.00 1026.9
20260507043526 -17 90 4.8 19.3 0.00 0.00 0.00 1027.3
20260507043026 -17 72 9.7 19.3 0.00 0.00 0.00 1027.0
20260507042527 -17 95 6.4 19.3 0.00 0.00 0.00 1027.3
20260507042026 -17 57 6.4 19.3 0.00 0.00 0.00 1027.4
20260507041526 -17 38 4.8 20.9 0.00 0.00 0.00 1027.2
20260507041026 -17 54 6.4 20.9 0.00 0.00 0.00 1027.4
20260507035456 -17 66 4.8 20.9 0.00 0.00 0.00 1027.3
20260507034956 -17 77 4.8 20.9 0.00 0.00 0.00 1027.6
20260507034456 -17 78 4.8 20.9 0.00 0.00 0.00 1027.6
20260507033441 -17 88 8.0 22.5 0.00 0.00 0.00 1027.6
20260507032426 -17 106 14.5 22.5 0.00 0.00 0.00 1027.7
20260507031926 -17 96 12.9 22.5 0.00 0.00 0.00 1027.6
20260507031426 -17 103 9.7 20.9 0.00 0.00 0.00 1027.7
20260507030926 -17 97 9.7 20.9 0.00 0.00 0.00 1027.6
20260507030426 -17 90 8.0 24.1 0.00 0.00 0.00 1027.7
20260507025926 -17 94 9.7 24.1 0.00 0.00 0.00 1028.1
20260507025426 -17 98 9.7 24.1 0.00 0.00 0.00 1027.9
20260507024926 -17 66 9.7 24.1 0.00 0.00 0.00 1027.9
20260507024426 -17 109 12.9 24.1 0.00 0.00 0.00 1028.2
20260507023926 -17 100 8.0 19.3 0.00 0.00 0.00 1028.1
20260507023426 -17 95 4.8 17.7 0.00 0.00 0.00 1027.8
20260507022926 -17 37 6.4 17.7 0.00 0.00 0.00 1027.7
20260507021910 -17 97 4.8 17.7 0.00 0.00 0.00 1027.9
20260507021410 -17 29 9.7 17.7 0.00 0.00 0.00 1027.5
20260507020910 -17 78 6.4 17.7 0.00 0.00 0.00 1028.0
20260507020410 -17 46 6.4 17.7 0.00 0.00 0.00 1027.7
20260507015910 -17 85 4.8 17.7 0.00 0.00 0.00 1027.9
20260507015410 -17 79 8.0 19.3 0.00 0.00 0.00 1027.9
20260507014910 -17 38 9.7 19.3 0.00 0.00 0.00 1027.6
20260507014410 -17 90 9.7 19.3 0.00 0.00 0.00 1027.7
20260507013910 -17 79 9.7 19.3 0.00 0.00 0.00 1027.6
20260507013410 -17 72 9.7 19.3 0.00 0.00 0.00 1027.6
20260507012910 -17 81 6.4 17.7 0.00 0.00 0.00 1027.5
20260507012410 -17 61 6.4 17.7 0.00 0.00 0.00 1027.8
20260507011355 -17 79 6.4 17.7 0.00 0.00 0.00 1027.9
20260507010340 -17 41 3.2 17.7 0.00 0.00 0.00 1027.4
20260507005840 -17 58 4.8 17.7 0.00 0.00 0.00 1027.1
20260507005340 -17 82 6.4 17.7 0.00 0.00 0.00 1027.2
20260507004839 -17 71 8.0 17.7 0.00 0.00 0.00 1027.4
20260507004339 -17 91 9.7 17.7 0.00 0.00 0.00 1027.1
20260507003839 -17 102 4.8 17.7 0.00 0.00 0.00 1027.4
20260507002824 -17 71 6.4 22.5 0.00 0.00 0.00 1027.1
20260507002323 -17 87 8.0 24.1 0.00 0.00 0.00 1027.0
20260507001822 -17 84 9.7 24.1 0.00 0.00 0.00 1027.0
20260507001322 -17 106 14.5 22.5 0.00 0.00 0.00 1026.9
20260507000822 -17 101 12.9 19.3 0.00 0.00 0.00 1027.2
20260507000322 -17 101 8.0 19.3 0.00 0.00 0.00 1027.0
20260506235822 -17 91 9.7 19.3 0.00 0.00 0.00 1026.8
20260506235322 -17 85 9.7 22.5 0.00 0.00 0.00 1026.8
20260506234305 -17 87 8.0 22.5 0.00 0.00 0.00 1026.6
20260506233805 -17 121 11.3 22.5 0.00 0.00 0.00 1026.4
20260506233305 -17 65 6.4 22.5 0.00 0.00 0.00 1026.5
20260506232805 -17 87 11.3 22.5 0.00 0.00 0.00 1026.4
20260506232306 -17 96 9.7 22.5 0.00 0.00 0.00 1026.4
20260506231805 -17 102 11.3 20.9 0.00 0.00 0.00 1026.1
20260506231305 -17 112 9.7 20.9 0.00 0.00 0.00 1026.2
20260506230804 -17 85 8.0 20.9 0.00 0.00 0.00 1026.1
20260506230304 -17 84 11.3 19.3 0.00 0.00 0.00 1026.3
20260506225803 -17 114 14.5 19.3 0.00 0.00 0.00 1026.3
20260506225305 -17 105 12.9 19.3 0.00 0.00 0.00 1026.2
20260506224247 -17 75 8.0 20.9 0.00 0.00 0.00 1025.8
20260506223747 -17 108 12.9 20.9 0.00 0.00 0.00 1025.7
20260506223247 -17 91 9.7 20.9 0.00 0.00 0.00 1025.7
20260506222232 -17 80 11.3 20.9 0.00 0.00 0.00 1025.8
20260506221732 -17 97 12.9 24.1 0.00 0.00 0.00 1025.5
20260506220716 -17 52 9.7 25.7 0.00 0.00 0.00 1025.5
20260506215144 -17 102 11.3 22.5 0.00 0.00 0.00 1025.8
20260506214644 -17 83 8.0 22.5 0.00 0.00 0.00 1025.4
20260506213627 -17 103 12.9 27.4 0.00 0.00 0.00 1025.3
20260506213127 -17 105 11.3 20.9 0.00 0.00 0.00 1025.5
20260506212111 -17 87 12.9 25.7 0.00 0.00 0.00 1025.3
20260506211611 -17 86 9.7 30.6 0.00 0.00 0.00 1025.5
20260506211111 -17 88 12.9 30.6 0.00 0.00 0.00 1025.2
20260506210056 -17 126 14.5 24.1 0.00 0.00 0.00 1025.3
20260506205556 -17 110 14.5 25.7 0.00 0.00 0.00 1025.3
20260506205056 -17 119 14.5 32.2 0.00 0.00 0.00 1025.5
20260506204556 -17 117 16.1 25.7 0.00 0.00 0.00 1025.3
20260506204056 -17 109 16.1 27.4 0.00 0.00 0.00 1025.1
20260506203556 -17 104 9.7 27.4 0.00 0.00 0.00 1025.1
20260506203056 -17 90 12.9 24.1 0.00 0.00 0.00 1025.1
20260506202556 -17 111 12.9 24.1 0.00 0.00 0.00 1025.1
20260506202056 -17 111 12.9 30.6 0.00 0.00 0.00 1025.2
20260506201556 -17 113 12.9 30.6 0.00 0.00 0.00 1025.2
20260506201057 -17 123 14.5 30.6 0.00 0.00 0.00 1025.3
20260506200556 -17 112 17.7 30.6 0.00 0.00 0.00 1025.3
20260506200057 -17 114 19.3 27.4 0.00 0.00 0.00 1025.2
20260506195556 -17 105 12.9 25.7 0.00 0.00 0.00 1025.5
20260506194540 -17 104 16.1 27.4 0.00 0.00 0.00 1025.4
20260506193525 -17 108 17.7 30.6 0.00 0.00 0.00 1025.6
20260506193025 -17 108 12.9 30.6 0.00 0.00 0.00 1025.6
20260506192525 -17 114 16.1 25.7 0.00 0.00 0.00 1025.6
20260506192026 -17 108 12.9 25.7 0.00 0.00 0.00 1025.6
20260506191526 -17 119 14.5 25.7 0.00 0.00 0.00 1025.7
20260506191025 -17 120 16.1 24.1 0.00 0.00 0.00 1025.7
20260506190524 -17 113 14.5 25.7 0.00 0.00 0.00 1025.7